Regional Weather Roundup
Issued by NWS

Home | Current Version | Previous Version | Graphics & Text | Print | Product List | Glossary On
Versions: 1 2 3 4 5 6 7 8 9 10 11 12 13 14 15 16 17 18 19 20 21 22 23 24 25 26 27 28 29 30 31 32 33 34 35 36 37 38 39 40 41 42 43 44 45 46 47 48 49 50
523
ASUS43 KTOP 291508
RWRKS

WEATHER ROUNDUP FOR KANSAS
NATIONAL WEATHER SERVICE GOODLAND KS
1000 AM CDT FRI JUL 29 2016

NOTE:  "FAIR" INDICATES FEW OR NO CLOUDS BELOW 12,000 FEET WITH NO
SIGNIFICANT WEATHER AND/OR OBSTRUCTIONS TO VISIBILITY.

KSZ001>006-013>018-027>032-041>047-291600-
NORTHWEST KANSAS

CITY           SKY/WX    TMP DP  RH WIND       PRES   REMARKS
GOODLAND       CLOUDY    67  62  84 CALM      30.17R
HAYS           CLOUDY    73  63  68 SE5       30.10R
HILL CITY      MOSUNNY   72  65  78 CALM      30.11R
RUSSELL        MOSUNNY   73  68  84 CALM      30.07R
$$

KSZ061>065-074>080-084>089-291600-
SOUTHWEST KANSAS

CITY           SKY/WX    TMP DP  RH WIND       PRES   REMARKS
DODGE CITY     CLOUDY    72  65  78 NE13      30.12R
ELKHART          N/A     67  60  78 E9          N/A
GARDEN CITY    CLOUDY    71  65  81 NE13      30.12R
GREAT BEND     PTSUNNY   72  63  73 S8        30.09S
LIBERAL        CLOUDY    70  63  78 SE10      30.14R
PRATT          MOSUNNY   69  63  82 S7        30.11S
$$

KSZ066>073-081>083-090>101-291600-
SOUTHEAST KANSAS

CITY           SKY/WX    TMP DP  RH WIND       PRES   REMARKS
CHANUTE        CLOUDY    72  68  87 NW8       30.04R
COFFEYVILLE    CLOUDY    73  69  87 N12       30.02R
HUTCHINSON     CLOUDY    74  67  78 S3        30.08R
MEDICINE LODGE   N/A     70  65  84 SW6       30.08F
NEWTON         CLOUDY    73  69  87 W5        30.07F
PARSONS        CLOUDY    73  69  87 NW9       30.04R
WICHITA INTL   PTSUNNY   74  69  85 NW9       30.06S
WICHITA JABRA  CLOUDY    71  69  93 W9        30.06F
WICHITA MCCONL CLOUDY    71  69  90 NW8       30.05F
WINFIELD       CLOUDY    70  66  87 N10       30.01F
$$

KSZ007>012-019>026-033>040-048>060-102>105-291600-
NORTHEAST KANSAS

CITY           SKY/WX    TMP DP  RH WIND       PRES   REMARKS
CONCORDIA      MOSUNNY   72  67  84 E6        30.07S
EMPORIA        CLOUDY    73  68  84 W5        30.05S
LAWRENCE       SUNNY     77  67  71 NE5       30.03R
MANHATTAN      MOSUNNY   74  69  85 CALM      30.04R
MARYSVILLE     MOSUNNY   75  64  69 NE3       30.06F
OLATHE IND     CLOUDY    76  68  76 N6        30.03R
OLATHE EXE     CLOUDY    75  66  73 E7        30.02S
SALINA         SUNNY     76  68  76 S3        30.05S
TOPEKA BILLARD SUNNY     75  66  73 NE6       30.03S
TOPEKA FORBES  MOSUNNY   77  67  71 NE8       30.03S
$$




USA.gov is the U.S. government's official web portal to all federal, state and local government web resources and services.